Time,TemperatureF,DewpointF,PressureIn,WindDirection,WindDirectionDegrees,WindSpeedMPH,WindSpeedGustMPH,Humidity,HourlyPrecipIn,Conditions,Clouds,dailyrainin,SoftwareType,DateUTC
2013-02-22 00:02:00,67.1,62.4,29.36,NE,45,0.0,0.0,85,0.00,,,0.00,meteohub,2013-02-22 10:02:00,
2013-02-22 00:07:00,67.1,62.4,29.36,NE,45,0.0,0.0,85,0.00,,,0.00,meteohub,2013-02-22 10:07:00,
2013-02-22 00:12:00,66.9,62.2,29.36,NE,45,0.0,0.0,85,0.00,,,0.00,meteohub,2013-02-22 10:12:00,
2013-02-22 00:17:00,66.7,62.1,29.36,West,270,0.0,0.0,85,0.00,,,0.00,meteohub,2013-02-22 10:17:00,
2013-02-22 00:22:00,66.9,61.9,29.36,NE,45,0.0,0.0,84,0.00,,,0.00,meteohub,2013-02-22 10:22:00,
2013-02-22 00:27:00,66.9,61.5,29.35,NE,45,0.0,0.0,83,0.00,,,0.00,meteohub,2013-02-22 10:27:00,
2013-02-22 00:32:00,67.1,61.7,29.35,NE,45,0.0,0.0,83,0.00,,,0.00,meteohub,2013-02-22 10:32:00,
2013-02-22 00:37:00,67.1,61.7,29.36,NE,45,0.0,0.0,83,0.00,,,0.00,meteohub,2013-02-22 10:37:00,
2013-02-22 00:42:00,67.1,61.7,29.36,NE,45,0.0,0.0,83,0.00,,,0.00,meteohub,2013-02-22 10:42:00,
2013-02-22 00:47:00,67.3,61.9,29.36,NE,45,0.0,0.0,83,0.00,,,0.00,meteohub,2013-02-22 10:47:00,
2013-02-22 00:52:00,67.3,61.9,29.36,NE,45,0.0,0.0,83,0.00,,,0.00,meteohub,2013-02-22 10:52:00,
2013-02-22 00:57:00,67.1,61.7,29.37,NE,45,0.0,0.0,83,0.00,,,0.00,meteohub,2013-02-22 10:57:00,
2013-02-22 01:02:00,67.3,62.2,29.37,NE,45,0.0,0.0,84,0.00,,,0.00,meteohub,2013-02-22 11:02:00,
2013-02-22 01:07:00,67.3,62.2,29.36,NE,45,0.0,0.0,84,0.00,,,0.00,meteohub,2013-02-22 11:07:00,
2013-02-22 01:12:00,67.3,62.2,29.37,NE,45,0.0,0.0,84,0.00,,,0.00,meteohub,2013-02-22 11:12:00,
2013-02-22 01:17:00,67.3,62.2,29.36,NE,45,0.0,0.0,84,0.00,,,0.00,meteohub,2013-02-22 11:17:00,
2013-02-22 01:22:00,67.1,62.1,29.35,NE,45,0.0,0.0,84,0.00,,,0.00,meteohub,2013-02-22 11:22:00,
2013-02-22 01:27:00,67.1,62.1,29.36,NE,45,0.0,0.0,84,0.00,,,0.00,meteohub,2013-02-22 11:27:00,
2013-02-22 01:32:00,66.9,61.9,29.35,East,90,0.0,0.0,84,0.00,,,0.00,meteohub,2013-02-22 11:32:00,
2013-02-22 01:37:00,66.9,61.9,29.35,East,90,0.0,0.0,84,0.00,,,0.00,meteohub,2013-02-22 11:37:00,
2013-02-22 01:42:00,66.7,61.7,29.35,NE,45,0.0,0.0,84,0.00,,,0.00,meteohub,2013-02-22 11:42:00,
2013-02-22 01:47:00,66.7,61.7,29.35,East,90,0.0,0.0,84,0.00,,,0.00,meteohub,2013-02-22 11:47:00,
2013-02-22 01:52:00,66.7,61.7,29.35,NE,45,0.0,0.0,84,0.00,,,0.00,meteohub,2013-02-22 11:52:00,
2013-02-22 01:57:00,66.7,61.7,29.35,NE,45,0.0,0.0,84,0.00,,,0.00,meteohub,2013-02-22 11:57:00,
2013-02-22 02:02:00,66.7,61.3,29.34,NE,45,0.0,0.0,83,0.00,,,0.00,meteohub,2013-02-22 12:02:00,
2013-02-22 02:07:00,66.7,61.3,29.34,North,0,0.0,0.0,83,0.00,,,0.00,meteohub,2013-02-22 12:07:00,
2013-02-22 02:12:00,66.7,61.0,29.35,East,90,0.0,0.0,82,0.00,,,0.00,meteohub,2013-02-22 12:12:00,
2013-02-22 02:17:00,66.9,61.0,29.35,North,0,0.0,0.0,81,0.00,,,0.00,meteohub,2013-02-22 12:17:00,
2013-02-22 02:22:00,67.1,60.8,29.34,NE,45,0.0,0.0,80,0.00,,,0.00,meteohub,2013-02-22 12:22:00,
2013-02-22 02:27:00,67.1,60.8,29.34,East,90,0.0,0.0,80,0.00,,,0.00,meteohub,2013-02-22 12:27:00,
2013-02-22 02:32:00,66.9,60.3,29.34,NE,45,0.0,0.0,79,0.00,,,0.00,meteohub,2013-02-22 12:32:00,
2013-02-22 02:37:00,67.1,60.4,29.34,NE,45,0.0,0.0,79,0.00,,,0.00,meteohub,2013-02-22 12:37:00,
2013-02-22 02:42:00,67.1,60.4,29.33,North,0,0.0,0.0,79,0.00,,,0.00,meteohub,2013-02-22 12:42:00,
2013-02-22 02:47:00,67.3,60.3,29.33,NE,45,0.0,0.0,78,0.00,,,0.00,meteohub,2013-02-22 12:47:00,
2013-02-22 02:52:00,67.1,59.7,29.33,NE,45,0.0,0.0,77,0.00,,,0.00,meteohub,2013-02-22 12:52:00,
2013-02-22 02:57:00,67.1,59.4,29.33,East,90,0.0,0.0,76,0.00,,,0.00,meteohub,2013-02-22 12:57:00,
2013-02-22 03:02:00,67.3,59.5,29.33,SE,135,0.0,0.0,76,0.00,,,0.00,meteohub,2013-02-22 13:02:00,
2013-02-22 03:07:00,67.3,59.0,29.33,East,90,0.0,0.0,75,0.00,,,0.00,meteohub,2013-02-22 13:07:00,
2013-02-22 03:12:00,67.3,58.6,29.32,East,90,0.0,0.0,74,0.00,,,0.00,meteohub,2013-02-22 13:12:00,
2013-02-22 03:17:00,67.5,58.5,29.32,NE,45,0.0,0.0,73,0.00,,,0.00,meteohub,2013-02-22 13:17:00,
2013-02-22 03:22:00,67.6,58.3,29.33,East,90,0.0,0.0,72,0.00,,,0.00,meteohub,2013-02-22 13:22:00,
2013-02-22 03:27:00,68.0,58.6,29.33,East,90,0.0,0.0,72,0.00,,,0.00,meteohub,2013-02-22 13:27:00,
2013-02-22 03:32:00,68.0,58.3,29.32,East,90,0.0,0.0,71,0.00,,,0.00,meteohub,2013-02-22 13:32:00,
2013-02-22 03:37:00,68.0,58.6,29.32,East,90,0.0,0.0,72,0.00,,,0.00,meteohub,2013-02-22 13:37:00,
2013-02-22 03:42:00,67.6,58.6,29.31,East,90,0.0,0.0,73,0.00,,,0.00,meteohub,2013-02-22 13:42:00,
2013-02-22 03:47:00,67.1,58.1,29.31,SE,135,0.0,0.0,73,0.00,,,0.00,meteohub,2013-02-22 13:47:00,
2013-02-22 03:52:00,66.9,58.3,29.31,SE,135,0.0,0.0,74,0.00,,,0.00,meteohub,2013-02-22 13:52:00,
2013-02-22 03:57:00,66.7,58.1,29.31,NE,45,0.0,0.0,74,0.00,,,0.00,meteohub,2013-02-22 13:57:00,
2013-02-22 04:02:00,66.4,58.3,29.31,NE,45,0.0,0.0,75,0.00,,,0.00,meteohub,2013-02-22 14:02:00,
2013-02-22 04:07:00,66.6,58.1,29.31,East,90,0.0,0.0,74,0.00,,,0.00,meteohub,2013-02-22 14:07:00,
2013-02-22 04:12:00,66.7,58.1,29.31,SE,135,0.0,0.0,74,0.00,,,0.00,meteohub,2013-02-22 14:12:00,
2013-02-22 04:17:00,66.7,58.1,29.31,East,90,0.0,0.0,74,0.00,,,0.00,meteohub,2013-02-22 14:17:00,
2013-02-22 04:22:00,66.6,58.5,29.31,East,90,0.0,0.0,75,0.00,,,0.00,meteohub,2013-02-22 14:22:00,
2013-02-22 04:27:00,66.4,58.3,29.30,East,90,0.0,0.0,75,0.00,,,0.00,meteohub,2013-02-22 14:27:00,
2013-02-22 04:32:00,66.2,58.5,29.31,NE,45,0.0,0.0,76,0.00,,,0.00,meteohub,2013-02-22 14:32:00,
2013-02-22 04:37:00,66.0,58.3,29.31,North,0,0.0,0.0,76,0.00,,,0.00,meteohub,2013-02-22 14:37:00,
2013-02-22 04:43:00,65.8,58.1,29.31,North,0,0.0,0.0,76,0.00,,,0.00,meteohub,2013-02-22 14:43:00,
2013-02-22 04:48:00,65.7,58.3,29.31,East,90,0.0,0.0,77,0.00,,,0.00,meteohub,2013-02-22 14:48:00,
2013-02-22 04:53:00,65.5,58.5,29.32,NE,45,0.0,0.0,78,0.00,,,0.00,meteohub,2013-02-22 14:53:00,
2013-02-22 04:58:00,65.5,58.5,29.31,NE,45,0.0,0.0,78,0.00,,,0.00,meteohub,2013-02-22 14:58:00,
2013-02-22 05:03:00,65.3,58.6,29.31,East,90,0.0,0.0,79,0.00,,,0.00,meteohub,2013-02-22 15:03:00,
2013-02-22 05:08:00,65.1,58.8,29.31,NE,45,0.0,0.0,80,0.00,,,0.00,meteohub,2013-02-22 15:08:00,
2013-02-22 05:13:00,65.3,59.0,29.31,East,90,0.0,0.0,80,0.00,,,0.00,meteohub,2013-02-22 15:13:00,
2013-02-22 05:18:00,65.3,59.0,29.31,NE,45,0.0,0.0,80,0.00,,,0.00,meteohub,2013-02-22 15:18:00,
2013-02-22 05:23:00,65.1,59.2,29.31,East,90,0.0,0.0,81,0.00,,,0.00,meteohub,2013-02-22 15:23:00,
2013-02-22 05:28:00,65.1,59.5,29.31,East,90,0.0,0.0,82,0.00,,,0.00,meteohub,2013-02-22 15:28:00,
2013-02-22 05:33:00,65.1,59.5,29.31,East,90,0.0,0.0,82,0.00,,,0.00,meteohub,2013-02-22 15:33:00,
2013-02-22 05:38:00,65.3,59.7,29.32,East,90,0.0,0.0,82,0.00,,,0.00,meteohub,2013-02-22 15:38:00,
2013-02-22 05:43:00,65.5,59.9,29.32,East,90,0.0,0.0,82,0.00,,,0.00,meteohub,2013-02-22 15:43:00,
2013-02-22 05:48:00,65.5,60.3,29.31,East,90,0.0,0.0,83,0.00,,,0.00,meteohub,2013-02-22 15:48:00,
2013-02-22 05:53:00,65.3,60.1,29.31,East,90,0.0,0.0,83,0.00,,,0.00,meteohub,2013-02-22 15:53:00,
2013-02-22 05:58:00,65.3,60.1,29.31,East,90,0.0,0.0,83,0.00,,,0.00,meteohub,2013-02-22 15:58:00,
2013-02-22 06:03:00,65.3,60.1,29.31,East,90,0.0,0.0,83,0.00,,,0.00,meteohub,2013-02-22 16:03:00,
2013-02-22 06:08:00,65.3,60.1,29.31,East,90,0.0,0.0,83,0.00,,,0.00,meteohub,2013-02-22 16:08:00,
2013-02-22 06:13:00,65.1,59.9,29.31,East,90,0.0,0.0,83,0.00,,,0.00,meteohub,2013-02-22 16:13:00,
2013-02-22 06:18:00,64.9,59.4,29.31,East,90,0.0,0.0,82,0.00,,,0.00,meteohub,2013-02-22 16:18:00,
2013-02-22 06:23:00,64.8,59.2,29.31,East,90,0.0,0.0,82,0.00,,,0.00,meteohub,2013-02-22 16:23:00,
2013-02-22 06:28:00,64.6,59.0,29.31,East,90,0.0,0.0,82,0.00,,,0.00,meteohub,2013-02-22 16:28:00,
2013-02-22 06:33:00,64.6,59.0,29.31,East,90,0.0,0.0,82,0.00,,,0.00,meteohub,2013-02-22 16:33:00,
2013-02-22 06:38:00,64.6,59.0,29.32,East,90,0.0,0.0,82,0.00,,,0.00,meteohub,2013-02-22 16:38:00,
2013-02-22 06:43:00,64.8,59.2,29.32,East,90,0.0,0.0,82,0.00,,,0.00,meteohub,2013-02-22 16:43:00,
2013-02-22 06:48:00,64.9,59.4,29.32,East,90,0.0,0.0,82,0.00,,,0.00,meteohub,2013-02-22 16:48:00,
2013-02-22 06:53:00,64.9,59.4,29.32,East,90,0.0,0.0,82,0.00,,,0.00,meteohub,2013-02-22 16:53:00,
2013-02-22 06:58:00,64.9,59.4,29.32,East,90,0.0,0.0,82,0.00,,,0.00,meteohub,2013-02-22 16:58:00,
2013-02-22 07:03:00,65.1,59.2,29.33,East,90,0.0,0.0,81,0.00,,,0.00,meteohub,2013-02-22 17:03:00,
2013-02-22 07:08:00,65.1,59.2,29.33,East,90,0.0,0.0,81,0.00,,,0.00,meteohub,2013-02-22 17:08:00,
2013-02-22 07:13:00,65.3,59.0,29.34,East,90,0.0,0.0,80,0.00,,,0.00,meteohub,2013-02-22 17:13:00,
2013-02-22 07:18:00,65.7,59.0,29.34,East,90,0.0,0.0,79,0.00,,,0.00,meteohub,2013-02-22 17:18:00,
2013-02-22 07:23:00,65.7,59.4,29.35,East,90,0.0,0.0,80,0.00,,,0.00,meteohub,2013-02-22 17:23:00,
2013-02-22 07:28:00,65.7,59.0,29.35,East,90,0.0,0.0,79,0.00,,,0.00,meteohub,2013-02-22 17:28:00,
2013-02-22 07:33:00,65.8,59.2,29.34,East,90,0.0,0.0,79,0.00,,,0.00,meteohub,2013-02-22 17:33:00,
2013-02-22 07:38:00,66.0,59.4,29.34,East,90,0.0,0.0,79,0.00,,,0.00,meteohub,2013-02-22 17:38:00,
2013-02-22 07:43:00,66.4,59.7,29.34,East,90,0.0,0.0,79,0.00,,,0.00,meteohub,2013-02-22 17:43:00,
2013-02-22 07:48:00,66.6,59.5,29.34,East,90,0.0,0.0,78,0.00,,,0.00,meteohub,2013-02-22 17:48:00,
2013-02-22 07:54:00,66.7,60.1,29.35,East,90,0.0,0.0,79,0.00,,,0.00,meteohub,2013-02-22 17:54:00,
2013-02-22 07:59:00,67.1,59.7,29.35,East,90,0.0,0.0,77,0.00,,,0.00,meteohub,2013-02-22 17:59:00,
2013-02-22 08:04:00,67.3,59.9,29.35,East,90,0.0,0.0,77,0.00,,,0.00,meteohub,2013-02-22 18:04:00,
2013-02-22 08:09:00,67.5,60.4,29.36,East,90,0.0,0.0,78,0.00,,,0.00,meteohub,2013-02-22 18:09:00,
2013-02-22 08:14:00,67.6,60.6,29.36,East,90,0.0,0.0,78,0.00,,,0.00,meteohub,2013-02-22 18:14:00,
2013-02-22 08:19:00,67.6,60.3,29.36,East,90,0.0,0.0,77,0.00,,,0.00,meteohub,2013-02-22 18:19:00,
2013-02-22 08:24:00,67.8,60.6,29.36,East,90,0.0,0.0,78,0.00,,,0.00,meteohub,2013-02-22 18:24:00,
2013-02-22 08:29:00,68.0,61.9,29.36,East,90,0.0,0.0,81,0.00,,,0.00,meteohub,2013-02-22 18:29:00,
2013-02-22 08:34:00,68.4,62.6,29.36,East,90,0.0,0.0,82,0.00,,,0.00,meteohub,2013-02-22 18:34:00,
2013-02-22 08:39:00,68.7,63.0,29.36,East,90,0.0,0.0,82,0.00,,,0.00,meteohub,2013-02-22 18:39:00,
2013-02-22 08:44:00,69.1,63.7,29.36,East,90,0.0,0.0,83,0.00,,,0.00,meteohub,2013-02-22 18:44:00,
2013-02-22 08:49:00,69.6,64.6,29.36,East,90,0.0,0.0,84,0.00,,,0.00,meteohub,2013-02-22 18:49:00,
2013-02-22 08:54:00,69.8,65.1,29.36,SE,135,0.0,0.0,85,0.00,,,0.00,meteohub,2013-02-22 18:54:00,
2013-02-22 08:59:00,70.0,64.6,29.36,East,90,0.0,0.0,83,0.00,,,0.00,meteohub,2013-02-22 18:59:00,
2013-02-22 09:04:00,70.2,64.8,29.36,East,90,0.0,0.0,83,0.00,,,0.00,meteohub,2013-02-22 19:04:00,
2013-02-22 09:09:00,70.3,64.6,29.37,East,90,0.0,0.0,82,0.00,,,0.00,meteohub,2013-02-22 19:09:00,
2013-02-22 09:14:00,70.5,64.8,29.37,NW,315,0.0,0.0,82,0.00,,,0.00,meteohub,2013-02-22 19:14:00,
2013-02-22 09:19:00,70.7,64.9,29.38,NW,315,0.0,0.0,82,0.00,,,0.00,meteohub,2013-02-22 19:19:00,
2013-02-22 09:24:00,71.1,65.3,29.38,NW,315,0.0,0.0,82,0.00,,,0.00,meteohub,2013-02-22 19:24:00,
2013-02-22 09:29:00,71.6,65.8,29.38,NW,315,0.0,0.0,82,0.00,,,0.00,meteohub,2013-02-22 19:29:00,
2013-02-22 09:34:00,72.0,65.8,29.38,East,90,0.0,0.0,81,0.00,,,0.00,meteohub,2013-02-22 19:34:00,
2013-02-22 09:39:00,72.1,65.7,29.38,East,90,0.0,0.0,80,0.00,,,0.00,meteohub,2013-02-22 19:39:00,
2013-02-22 09:44:00,72.7,65.8,29.37,West,270,0.0,0.0,79,0.00,,,0.00,meteohub,2013-02-22 19:44:00,
2013-02-22 09:49:00,72.9,66.0,29.37,NW,315,0.0,0.0,79,0.00,,,0.00,meteohub,2013-02-22 19:49:00,
2013-02-22 09:54:00,72.9,65.7,29.37,WSW,248,0.0,0.0,78,0.00,,,0.00,meteohub,2013-02-22 19:54:00,
2013-02-22 09:59:00,73.0,66.9,29.37,WSW,248,0.0,0.0,81,0.00,,,0.00,meteohub,2013-02-22 19:59:00,
2013-02-22 10:04:00,73.4,67.6,29.37,West,270,0.0,0.0,82,0.00,,,0.00,meteohub,2013-02-22 20:04:00,
2013-02-22 10:09:00,73.6,67.8,29.37,NW,315,0.0,0.0,82,0.00,,,0.00,meteohub,2013-02-22 20:09:00,
2013-02-22 10:14:00,73.2,67.5,29.37,SE,135,0.0,0.0,82,0.00,,,0.00,meteohub,2013-02-22 20:14:00,
2013-02-22 10:19:00,73.4,68.0,29.37,WSW,248,0.0,0.0,83,0.00,,,0.00,meteohub,2013-02-22 20:19:00,
2013-02-22 10:24:00,73.6,67.8,29.37,NW,315,0.0,0.0,82,0.00,,,0.00,meteohub,2013-02-22 20:24:00,
2013-02-22 10:29:00,73.9,68.4,29.36,North,0,0.0,0.0,83,0.00,,,0.00,meteohub,2013-02-22 20:29:00,
2013-02-22 10:34:00,74.1,68.5,29.36,NE,45,0.0,0.0,83,0.00,,,0.00,meteohub,2013-02-22 20:34:00,
2013-02-22 10:39:00,74.5,68.5,29.36,NE,45,0.0,0.0,82,0.00,,,0.00,meteohub,2013-02-22 20:39:00,
2013-02-22 10:44:00,74.8,68.5,29.36,West,270,0.0,0.0,81,0.00,,,0.00,meteohub,2013-02-22 20:44:00,
2013-02-22 10:49:00,75.7,69.1,29.35,East,90,0.0,0.0,80,0.00,,,0.00,meteohub,2013-02-22 20:49:00,
2013-02-22 10:54:00,75.7,69.1,29.36,East,90,0.0,0.0,80,0.00,,,0.00,meteohub,2013-02-22 20:54:00,
2013-02-22 10:59:00,76.1,69.4,29.35,South,180,0.0,0.0,80,0.00,,,0.00,meteohub,2013-02-22 20:59:00,
2013-02-22 11:04:00,75.9,69.3,29.35,West,270,0.0,0.0,80,0.00,,,0.00,meteohub,2013-02-22 21:04:00,
2013-02-22 11:09:00,75.6,69.3,29.36,West,270,0.0,0.0,81,0.00,,,0.00,meteohub,2013-02-22 21:09:00,
2013-02-22 11:14:00,75.2,68.9,29.35,WSW,248,0.0,0.0,81,0.00,,,0.00,meteohub,2013-02-22 21:14:00,
2013-02-22 11:19:00,75.9,70.0,29.35,WSW,248,0.0,0.0,82,0.00,,,0.00,meteohub,2013-02-22 21:19:00,
2013-02-22 11:24:00,75.7,69.4,29.35,NW,315,0.0,0.0,81,0.00,,,0.00,meteohub,2013-02-22 21:24:00,
2013-02-22 11:29:00,75.6,69.3,29.35,West,270,0.0,0.0,81,0.00,,,0.00,meteohub,2013-02-22 21:29:00,
2013-02-22 11:34:00,75.6,69.6,29.34,SE,135,0.0,0.0,82,0.00,,,0.00,meteohub,2013-02-22 21:34:00,
2013-02-22 11:39:00,75.7,69.8,29.34,WSW,248,0.0,0.0,82,0.00,,,0.00,meteohub,2013-02-22 21:39:00,
2013-02-22 11:44:00,75.0,69.1,29.34,SE,135,0.0,0.0,82,0.00,,,0.00,meteohub,2013-02-22 21:44:00,
2013-02-22 11:49:00,75.2,69.6,29.34,WSW,248,0.0,0.0,83,0.00,,,0.00,meteohub,2013-02-22 21:49:00,
2013-02-22 11:54:00,75.4,69.8,29.33,NE,45,0.0,0.0,83,0.00,,,0.00,meteohub,2013-02-22 21:54:00,
2013-02-22 11:59:00,74.5,69.3,29.33,NE,45,0.0,0.0,84,0.00,,,0.00,meteohub,2013-02-22 21:59:00,
2013-02-22 12:04:00,74.5,69.3,29.32,NW,315,0.0,0.0,84,0.00,,,0.00,meteohub,2013-02-22 22:04:00,
2013-02-22 12:09:00,74.3,69.1,29.32,South,180,0.0,0.0,84,0.00,,,0.00,meteohub,2013-02-22 22:09:00,
2013-02-22 12:15:00,74.1,69.3,29.32,West,270,0.0,0.0,85,0.00,,,0.00,meteohub,2013-02-22 22:15:00,
2013-02-22 12:20:00,73.8,68.9,29.31,WSW,248,0.0,0.0,85,0.00,,,0.00,meteohub,2013-02-22 22:20:00,
2013-02-22 12:25:00,74.1,68.9,29.31,NW,315,0.0,0.0,84,0.00,,,0.00,meteohub,2013-02-22 22:25:00,
2013-02-22 12:30:00,74.3,68.7,29.31,North,0,0.0,0.0,83,0.00,,,0.00,meteohub,2013-02-22 22:30:00,
2013-02-22 12:35:00,73.8,68.4,29.31,WSW,248,0.0,0.0,83,0.00,,,0.00,meteohub,2013-02-22 22:35:00,
2013-02-22 12:40:00,73.6,68.4,29.31,West,270,0.0,0.0,84,0.00,,,0.00,meteohub,2013-02-22 22:40:00,
2013-02-22 12:45:00,73.6,68.4,29.31,West,270,0.0,0.0,84,0.00,,,0.00,meteohub,2013-02-22 22:45:00,
2013-02-22 12:50:00,73.8,69.3,29.31,South,180,0.0,0.0,86,0.00,,,0.00,meteohub,2013-02-22 22:50:00,
2013-02-22 12:55:00,73.6,68.7,29.31,NW,315,0.0,0.0,85,0.00,,,0.00,meteohub,2013-02-22 22:55:00,
2013-02-22 13:00:00,73.4,68.5,29.31,NW,315,0.0,0.0,85,0.00,,,0.00,meteohub,2013-02-22 23:00:00,
2013-02-22 13:05:00,73.4,68.5,29.31,SE,135,0.0,0.0,85,0.00,,,0.00,meteohub,2013-02-22 23:05:00,
2013-02-22 13:10:00,73.4,68.9,29.31,WSW,248,0.0,0.0,86,0.00,,,0.00,meteohub,2013-02-22 23:10:00,
2013-02-22 13:15:00,73.2,68.7,29.31,West,270,0.0,0.0,86,0.00,,,0.00,meteohub,2013-02-22 23:15:00,
2013-02-22 13:20:00,73.2,69.1,29.31,NW,315,0.0,0.0,87,0.00,,,0.00,meteohub,2013-02-22 23:20:00,
2013-02-22 13:25:00,73.8,69.3,29.30,West,270,0.0,0.0,86,0.00,,,0.00,meteohub,2013-02-22 23:25:00,
2013-02-22 13:30:00,74.3,69.4,29.30,West,270,0.0,0.0,85,0.00,,,0.00,meteohub,2013-02-22 23:30:00,
2013-02-22 13:35:00,74.3,69.1,29.30,West,270,0.0,0.0,84,0.00,,,0.00,meteohub,2013-02-22 23:35:00,
2013-02-22 13:40:00,74.1,69.3,29.29,West,270,0.0,0.0,85,0.00,,,0.00,meteohub,2013-02-22 23:40:00,
2013-02-22 13:45:00,73.9,68.7,29.30,West,270,0.0,0.0,84,0.00,,,0.00,meteohub,2013-02-22 23:45:00,
2013-02-22 13:50:00,73.8,68.5,29.29,West,270,0.0,0.0,84,0.00,,,0.00,meteohub,2013-02-22 23:50:00,
2013-02-22 13:55:00,73.2,68.4,29.29,West,270,0.0,0.0,85,0.00,,,0.00,meteohub,2013-02-22 23:55:00,
2013-02-22 14:00:00,73.2,68.7,29.29,WSW,248,0.0,0.0,86,0.00,,,0.00,meteohub,2013-02-23 00:00:00,
2013-02-22 14:05:00,73.0,68.5,29.29,West,270,0.0,0.0,86,0.00,,,0.00,meteohub,2013-02-23 00:05:00,
2013-02-22 14:10:00,73.0,68.9,29.28,West,270,0.0,0.0,87,0.00,,,0.00,meteohub,2013-02-23 00:10:00,
2013-02-22 14:15:00,72.5,68.4,29.28,West,270,0.0,0.0,87,0.00,,,0.00,meteohub,2013-02-23 00:15:00,
2013-02-22 14:20:00,72.0,68.5,29.28,West,270,0.0,0.0,89,0.00,,,0.00,meteohub,2013-02-23 00:20:00,
2013-02-22 14:25:00,71.2,68.5,29.29,North,0,0.0,0.0,91,0.00,,,0.00,meteohub,2013-02-23 00:25:00,
2013-02-22 14:30:00,71.1,68.9,29.28,West,270,0.0,0.0,93,0.00,,,0.00,meteohub,2013-02-23 00:30:00,
2013-02-22 14:35:00,70.9,69.1,29.28,North,0,0.0,0.0,94,0.00,,,0.00,meteohub,2013-02-23 00:35:00,
2013-02-22 14:40:00,71.2,69.8,29.28,NE,45,0.0,0.0,95,0.00,,,0.01,meteohub,2013-02-23 00:40:00,
2013-02-22 14:45:00,71.2,69.4,29.27,NE,45,0.0,0.0,94,0.01,,,0.01,meteohub,2013-02-23 00:45:00,
2013-02-22 14:50:00,71.1,69.3,29.27,NE,45,0.0,0.0,94,0.01,,,0.01,meteohub,2013-02-23 00:50:00,
2013-02-22 14:55:00,71.4,70.0,29.27,NE,45,0.0,0.0,95,0.02,,,0.02,meteohub,2013-02-23 00:55:00,
2013-02-22 15:00:00,71.8,70.3,29.27,NE,45,0.0,0.0,95,0.02,,,0.02,meteohub,2013-02-23 01:00:00,
2013-02-22 15:05:00,72.0,70.2,29.27,East,90,0.0,0.0,94,0.04,,,0.04,meteohub,2013-02-23 01:05:00,
2013-02-22 15:10:00,72.0,69.8,29.27,East,90,0.0,0.0,93,0.04,,,0.04,meteohub,2013-02-23 01:10:00,
2013-02-22 15:15:00,71.8,69.3,29.27,NE,45,0.0,0.0,92,0.04,,,0.04,meteohub,2013-02-23 01:15:00,
2013-02-22 15:20:00,71.8,69.1,29.27,West,270,0.0,0.0,91,0.04,,,0.04,meteohub,2013-02-23 01:20:00,
2013-02-22 15:25:00,71.6,67.8,29.26,NE,45,0.0,0.0,88,0.04,,,0.04,meteohub,2013-02-23 01:25:00,
2013-02-22 15:30:00,71.6,68.2,29.27,NE,45,0.0,0.0,89,0.04,,,0.04,meteohub,2013-02-23 01:30:00,
2013-02-22 15:35:00,71.8,68.7,29.27,East,90,0.0,0.0,90,0.04,,,0.04,meteohub,2013-02-23 01:35:00,
2013-02-22 15:40:00,71.2,68.2,29.27,SE,135,0.0,0.0,90,0.02,,,0.04,meteohub,2013-02-23 01:40:00,
2013-02-22 15:45:00,71.1,68.5,29.27,SE,135,0.0,0.0,92,0.02,,,0.04,meteohub,2013-02-23 01:45:00,
2013-02-22 15:50:00,70.9,69.4,29.27,SE,135,0.0,0.0,95,0.02,,,0.04,meteohub,2013-02-23 01:50:00,
2013-02-22 15:55:00,70.5,69.6,29.27,SE,135,0.0,0.0,97,0.01,,,0.04,meteohub,2013-02-23 01:55:00,
2013-02-22 16:00:00,70.2,69.6,29.27,SE,135,0.0,0.0,98,0.01,,,0.04,meteohub,2013-02-23 02:00:00,
2013-02-22 16:05:00,70.0,69.4,29.27,SE,135,0.0,0.0,98,0.00,,,0.04,meteohub,2013-02-23 02:05:00,
2013-02-22 16:10:00,70.2,69.6,29.28,North,0,0.0,0.0,98,0.00,,,0.04,meteohub,2013-02-23 02:10:00,
2013-02-22 16:15:00,70.2,69.3,29.27,North,0,0.0,0.0,97,0.00,,,0.04,meteohub,2013-02-23 02:15:00,
2013-02-22 16:20:00,70.3,69.1,29.28,North,0,0.0,0.0,96,0.00,,,0.04,meteohub,2013-02-23 02:20:00,
2013-02-22 16:25:00,70.3,69.1,29.27,North,0,0.0,0.0,96,0.00,,,0.04,meteohub,2013-02-23 02:25:00,
2013-02-22 16:30:00,70.3,68.2,29.28,NE,45,0.0,0.0,93,0.00,,,0.04,meteohub,2013-02-23 02:30:00,
2013-02-22 16:35:00,70.2,68.0,29.28,East,90,0.0,0.0,93,0.00,,,0.04,meteohub,2013-02-23 02:35:00,
2013-02-22 16:40:00,70.2,69.8,29.28,SE,135,0.0,0.0,99,0.00,,,0.04,meteohub,2013-02-23 02:40:00,
2013-02-22 16:45:00,69.8,69.4,29.28,SE,135,0.0,0.0,99,0.00,,,0.04,meteohub,2013-02-23 02:45:00,
2013-02-22 16:50:00,69.6,69.3,29.28,SE,135,0.0,0.0,99,0.00,,,0.04,meteohub,2013-02-23 02:50:00,
2013-02-22 16:55:00,69.6,69.3,29.28,SE,135,0.0,0.0,99,0.00,,,0.04,meteohub,2013-02-23 02:55:00,
2013-02-22 17:00:00,69.6,69.3,29.28,South,180,0.0,0.0,99,0.00,,,0.04,meteohub,2013-02-23 03:00:00,
2013-02-22 17:05:00,69.4,69.1,29.28,SE,135,8.0,0.0,99,0.00,,,0.04,meteohub,2013-02-23 03:05:00,
2013-02-22 17:10:00,69.1,68.7,29.28,SE,135,6.0,8.0,99,0.00,,,0.04,meteohub,2013-02-23 03:10:00,
2013-02-22 17:15:00,68.9,68.5,29.28,SE,135,5.0,8.0,99,0.00,,,0.04,meteohub,2013-02-23 03:15:00,
2013-02-22 17:20:00,68.9,68.5,29.29,SE,135,3.0,8.0,99,0.00,,,0.04,meteohub,2013-02-23 03:20:00,
2013-02-22 17:25:00,68.7,68.4,29.29,SE,135,4.0,7.0,99,0.00,,,0.04,meteohub,2013-02-23 03:25:00,
2013-02-22 17:30:00,68.7,68.4,29.29,East,90,4.0,6.0,99,0.00,,,0.04,meteohub,2013-02-23 03:30:00,
2013-02-22 17:35:00,68.5,68.2,29.29,SE,135,4.0,6.0,99,0.00,,,0.04,meteohub,2013-02-23 03:35:00,
2013-02-22 17:40:00,68.7,68.4,29.29,SE,135,4.0,6.0,99,0.00,,,0.04,meteohub,2013-02-23 03:40:00,
2013-02-22 17:45:00,68.5,68.2,29.29,SE,135,4.0,4.0,99,0.00,,,0.04,meteohub,2013-02-23 03:45:00,
2013-02-22 17:50:00,68.7,68.4,29.29,East,90,4.0,4.0,99,0.00,,,0.04,meteohub,2013-02-23 03:50:00,
2013-02-22 17:56:00,68.7,68.4,29.29,SE,135,2.0,4.0,99,0.00,,,0.04,meteohub,2013-02-23 03:56:00,
2013-02-22 18:01:00,68.7,68.4,29.29,SE,135,2.0,4.0,99,0.00,,,0.04,meteohub,2013-02-23 04:01:00,
2013-02-22 18:06:00,68.9,68.5,29.29,SE,135,4.0,4.0,99,0.00,,,0.04,meteohub,2013-02-23 04:06:00,
2013-02-22 18:11:00,68.9,68.5,29.29,South,180,4.0,5.0,99,0.00,,,0.04,meteohub,2013-02-23 04:11:00,
2013-02-22 18:16:00,68.7,68.4,29.30,South,180,3.0,5.0,99,0.00,,,0.04,meteohub,2013-02-23 04:16:00,
2013-02-22 18:21:00,68.5,68.2,29.30,SE,135,1.0,5.0,99,0.00,,,0.04,meteohub,2013-02-23 04:21:00,
2013-02-22 18:26:00,68.4,68.0,29.31,SE,135,1.0,4.0,99,0.00,,,0.04,meteohub,2013-02-23 04:26:00,
2013-02-22 18:31:00,68.2,67.8,29.31,SE,135,2.0,4.0,99,0.00,,,0.04,meteohub,2013-02-23 04:31:00,
2013-02-22 18:36:00,68.2,67.8,29.30,SE,135,2.0,2.0,99,0.00,,,0.04,meteohub,2013-02-23 04:36:00,
2013-02-22 18:41:00,68.0,67.6,29.31,South,180,0.0,2.0,99,0.00,,,0.04,meteohub,2013-02-23 04:41:00,
2013-02-22 18:46:00,67.8,67.5,29.31,West,270,0.0,2.0,99,0.00,,,0.04,meteohub,2013-02-23 04:46:00,
2013-02-22 18:51:00,67.8,67.5,29.31,West,270,0.0,2.0,99,0.00,,,0.04,meteohub,2013-02-23 04:51:00,
2013-02-22 18:56:00,67.8,67.5,29.31,West,270,0.0,1.0,99,0.00,,,0.04,meteohub,2013-02-23 04:56:00,
2013-02-22 19:00:00,67.6,67.3,29.31,West,270,0.0,1.0,99,0.00,,,0.04,meteohub,2013-02-23 05:00:00,
2013-02-22 19:05:00,67.5,67.1,29.31,East,90,0.0,0.0,99,0.00,,,0.04,meteohub,2013-02-23 05:05:00,
2013-02-22 19:10:00,67.3,66.9,29.31,NE,45,1.0,0.0,99,0.00,,,0.04,meteohub,2013-02-23 05:10:00,
2013-02-22 19:15:00,66.9,66.6,29.31,WSW,248,2.0,2.0,99,0.00,,,0.04,meteohub,2013-02-23 05:15:00,
2013-02-22 19:20:00,66.9,66.6,29.31,NW,315,2.0,2.0,99,0.00,,,0.04,meteohub,2013-02-23 05:20:00,
2013-02-22 19:26:00,66.7,66.4,29.32,North,0,0.0,2.0,99,0.00,,,0.04,meteohub,2013-02-23 05:26:00,
2013-02-22 19:31:00,66.6,66.2,29.32,NW,315,0.0,2.0,99,0.00,,,0.04,meteohub,2013-02-23 05:31:00,
2013-02-22 19:36:00,66.4,66.0,29.32,North,0,0.0,2.0,99,0.00,,,0.04,meteohub,2013-02-23 05:36:00,
2013-02-22 19:41:00,66.2,65.8,29.33,North,0,0.0,0.0,99,0.00,,,0.04,meteohub,2013-02-23 05:41:00,
2013-02-22 19:46:00,66.0,65.7,29.33,North,0,0.0,0.0,99,0.00,,,0.04,meteohub,2013-02-23 05:46:00,
2013-02-22 19:51:00,66.0,65.7,29.33,North,0,0.0,0.0,99,0.00,,,0.04,meteohub,2013-02-23 05:51:00,
2013-02-22 19:56:00,65.8,65.5,29.33,North,0,0.0,0.0,99,0.00,,,0.04,meteohub,2013-02-23 05:56:00,
2013-02-22 20:01:00,65.8,65.5,29.33,North,0,0.0,0.0,99,0.00,,,0.04,meteohub,2013-02-23 06:01:00,
2013-02-22 20:06:00,65.8,65.5,29.34,North,0,0.0,0.0,99,0.00,,,0.04,meteohub,2013-02-23 06:06:00,
2013-02-22 20:11:00,65.7,65.3,29.33,NE,45,1.0,2.0,99,0.00,,,0.04,meteohub,2013-02-23 06:11:00,
2013-02-22 20:16:00,65.7,65.3,29.34,NE,45,2.0,2.0,99,0.00,,,0.04,meteohub,2013-02-23 06:16:00,
2013-02-22 20:21:00,65.7,65.3,29.34,NE,45,2.0,2.0,99,0.00,,,0.04,meteohub,2013-02-23 06:21:00,
2013-02-22 20:26:00,65.7,65.3,29.34,NE,45,2.0,2.0,99,0.00,,,0.04,meteohub,2013-02-23 06:26:00,
2013-02-22 20:31:00,65.7,65.3,29.35,WNW,293,2.0,2.0,99,0.00,,,0.04,meteohub,2013-02-23 06:31:00,
2013-02-22 20:36:00,65.8,65.5,29.34,NE,45,2.0,2.0,99,0.00,,,0.04,meteohub,2013-02-23 06:36:00,
2013-02-22 20:41:00,65.8,65.5,29.34,NE,45,1.0,2.0,99,0.00,,,0.04,meteohub,2013-02-23 06:41:00,
2013-02-22 20:46:00,65.8,65.5,29.34,North,0,2.0,2.0,99,0.00,,,0.04,meteohub,2013-02-23 06:46:00,
2013-02-22 20:51:00,65.7,65.3,29.34,NE,45,2.0,2.0,99,0.00,,,0.04,meteohub,2013-02-23 06:51:00,
2013-02-22 20:56:00,65.7,65.3,29.34,NE,45,2.0,2.0,99,0.00,,,0.04,meteohub,2013-02-23 06:56:00,
2013-02-22 21:01:00,65.7,65.3,29.34,NE,45,2.0,2.0,99,0.00,,,0.04,meteohub,2013-02-23 07:01:00,
2013-02-22 21:06:00,65.7,65.3,29.34,North,0,2.0,2.0,99,0.00,,,0.04,meteohub,2013-02-23 07:06:00,
2013-02-22 21:11:00,65.5,65.1,29.35,North,0,2.0,2.0,99,0.00,,,0.04,meteohub,2013-02-23 07:11:00,
2013-02-22 21:16:00,65.3,64.9,29.35,NE,45,2.0,2.0,99,0.00,,,0.04,meteohub,2013-02-23 07:16:00,
2013-02-22 21:21:00,65.1,64.8,29.35,North,0,2.0,3.0,99,0.00,,,0.04,meteohub,2013-02-23 07:21:00,
2013-02-22 21:26:00,65.1,64.8,29.36,NE,45,2.0,3.0,99,0.00,,,0.04,meteohub,2013-02-23 07:26:00,
2013-02-22 21:31:00,64.9,64.6,29.36,North,0,2.0,3.0,99,0.00,,,0.04,meteohub,2013-02-23 07:31:00,
2013-02-22 21:36:00,64.9,64.4,29.36,NE,45,2.0,2.0,98,0.00,,,0.04,meteohub,2013-02-23 07:36:00,
2013-02-22 21:41:00,65.1,64.2,29.36,NE,45,1.0,2.0,97,0.00,,,0.04,meteohub,2013-02-23 07:41:00,
2013-02-22 21:46:00,65.3,64.0,29.36,North,0,2.0,2.0,96,0.00,,,0.04,meteohub,2013-02-23 07:46:00,
2013-02-22 21:51:00,65.1,64.0,29.36,North,0,0.0,2.0,96,0.00,,,0.04,meteohub,2013-02-23 07:51:00,
2013-02-22 21:56:00,65.1,64.0,29.36,North,0,0.0,2.0,96,0.00,,,0.04,meteohub,2013-02-23 07:56:00,
2013-02-22 22:01:00,64.9,63.9,29.36,North,0,0.0,2.0,96,0.00,,,0.04,meteohub,2013-02-23 08:01:00,
2013-02-22 22:06:00,64.8,63.7,29.36,NE,45,1.0,2.0,96,0.00,,,0.04,meteohub,2013-02-23 08:06:00,
2013-02-22 22:11:00,64.6,63.5,29.36,NE,45,0.0,2.0,96,0.00,,,0.04,meteohub,2013-02-23 08:11:00,
2013-02-22 22:16:00,64.4,63.3,29.36,NE,45,0.0,2.0,96,0.00,,,0.04,meteohub,2013-02-23 08:16:00,
2013-02-22 22:21:00,64.0,63.1,29.36,East,90,2.0,2.0,97,0.00,,,0.04,meteohub,2013-02-23 08:21:00,
2013-02-22 22:26:00,63.7,63.1,29.37,East,90,1.0,2.0,98,0.00,,,0.04,meteohub,2013-02-23 08:26:00,
2013-02-22 22:31:00,63.5,63.1,29.37,East,90,1.0,2.0,99,0.00,,,0.04,meteohub,2013-02-23 08:31:00,
2013-02-22 22:36:00,63.3,63.0,29.37,NE,45,1.0,2.0,99,0.00,,,0.04,meteohub,2013-02-23 08:36:00,
2013-02-22 22:41:00,63.0,62.6,29.37,NE,45,1.0,2.0,99,0.00,,,0.04,meteohub,2013-02-23 08:41:00,
2013-02-22 22:47:00,62.8,62.4,29.37,NE,45,0.0,2.0,99,0.00,,,0.04,meteohub,2013-02-23 08:47:00,
2013-02-22 22:52:00,62.6,62.2,29.37,NE,45,0.0,2.0,99,0.00,,,0.04,meteohub,2013-02-23 08:52:00,
2013-02-22 22:57:00,62.4,62.1,29.36,NE,45,0.0,2.0,99,0.00,,,0.04,meteohub,2013-02-23 08:57:00,
2013-02-22 23:02:00,62.4,62.1,29.36,North,0,0.0,0.0,99,0.00,,,0.04,meteohub,2013-02-23 09:02:00,
2013-02-22 23:07:00,62.4,62.1,29.36,NE,45,0.0,0.0,99,0.00,,,0.04,meteohub,2013-02-23 09:07:00,
2013-02-22 23:12:00,62.4,62.1,29.36,NE,45,0.0,0.0,99,0.00,,,0.04,meteohub,2013-02-23 09:12:00,
2013-02-22 23:16:00,62.4,62.1,29.36,NE,45,0.0,0.0,99,0.00,,,0.04,meteohub,2013-02-23 09:16:00,
2013-02-22 23:22:00,62.4,62.1,29.36,NE,45,0.0,0.0,99,0.00,,,0.04,meteohub,2013-02-23 09:22:00,
2013-02-22 23:27:00,62.4,62.1,29.36,NE,45,0.0,0.0,99,0.00,,,0.04,meteohub,2013-02-23 09:27:00,
2013-02-22 23:32:00,62.2,61.9,29.36,NE,45,0.0,0.0,99,0.00,,,0.04,meteohub,2013-02-23 09:32:00,
2013-02-22 23:37:00,62.4,62.1,29.36,NE,45,0.0,0.0,99,0.00,,,0.04,meteohub,2013-02-23 09:37:00,
2013-02-22 23:42:00,62.2,61.9,29.36,NE,45,0.0,0.0,99,0.00,,,0.04,meteohub,2013-02-23 09:42:00,
2013-02-22 23:47:00,62.1,61.7,29.36,NE,45,0.0,0.0,99,0.00,,,0.04,meteohub,2013-02-23 09:47:00,
2013-02-22 23:52:00,62.2,61.9,29.36,NE,45,0.0,0.0,99,0.00,,,0.04,meteohub,2013-02-23 09:52:00,
2013-02-22 23:57:00,62.6,62.2,29.36,East,90,2.0,0.0,99,0.00,,,0.04,meteohub,2013-02-23 09:57:00,